Weather Roundup
Issued by NWS Chicago, IL

Home | Current Version | Previous Version | Text Only | Print | Product List | Glossary On
Versions: 1 2 3 4 5 6 7 8 9 10 11 12 13 14 15 16 17 18 19 20 21 22 23 24 25 26 27 28 29 30 31 32 33 34 35 36 37 38 39 40 41 42 43 44 45 46 47 48 49 50
000
NZUS59 KLOT 300400
HRRLOT

CHICAGO AREA WEATHER ROUNDUP
NATIONAL WEATHER SERVICE CHICAGO/ROMEOVILLE IL
1000 PM CST THU JAN 29 2015

NOTE: "FAIR" INDICATES FEW OR NO CLOUDS BELOW 12,000 FEET WITH NO
SIGNIFICANT WEATHER AND/OR OBSTRUCTIONS TO VISIBILITY.

* THESE STATIONS ARE NOT UNDER NWS QUALITY CONTROL. THEY ALSO MAY NOT
  REPORT WEATHER SUCH AS PRECIPITATION OR FOG.

ILZ005-006-012>014-019>023-300500-
NORTHEAST ILLINOIS

CITY           SKY/WX    TMP DP  RH WIND       PRES   REMARKS
OHARE          CLOUDY    33  21  61 NW14      30.24R WCI  23
MIDWAY         FLURRIES  36  20  52 NW14      30.25R
AURORA         CLOUDY    33  23  66 NW10      30.28R WCI  25
WAUKEGAN       CLOUDY    31  19  61 N10G20    30.25R WCI  22
DUPAGE AIRPORT CLOUDY    33  19  56 NW18G30   30.25R WCI  22
WHEELING       CLOUDY    33  19  56 NW13G22   30.26R WCI  24
NORTHERLY IS     N/A     35  17  48 NW14        N/A  WCI  26
$$

WIZ051-052-058>065-066-070>072-300500-
SOUTHEAST WISCONSIN

CITY           SKY/WX    TMP DP  RH WIND       PRES   REMARKS
MILWAUKEE      MOCLDY    30  13  49 N17G25    30.27R WCI  18
KENOSHA*       CLOUDY    30  19  63 N14G25    30.26R WCI  19
RACINE*        CLOUDY    30  16  56 N14G24    30.28R WCI  19
$$

INZ001>003-010>013-019-020-300500-
NORTHWEST INDIANA

CITY           SKY/WX    TMP DP  RH WIND       PRES   REMARKS
GARY*          CLOUDY    36  14  41 NW7       30.24R
MICHIGAN CITY* NOT AVBL
RENSSELAER*    NOT AVBL
$$

LMZ740>746-300500-
SOUTHERN LAKE MICHIGAN

STATION/POSITION TIME  SKY/WX   TEMP WIND        PRES    VSBY
                                AIR  DIR/SP/G
                 (UTC)          (F)  (DEG/KT/KT) (MB)    (MI)
HARRISON CRIB    0300            35  310/ 17/ 21   N/A
BURNHAM HARBOR   0400            35  290/ 17/ 19   N/A
CALUMET HARBOR   0300            35  300/ 10/ 18   N/A
BURNS HARBOR     NOT AVBL
MICHIGAN CITY    0300            34  280/ 20/ 23   N/A
$$

ABBREVIATIONS USED IN REMARKS
   TC - TEMPERATURE IN CELSIUS
  WCI - WIND CHILL INDEX
   HX - HEAT INDEX
  VSB - VISIBILITY
$$


USA.gov is the U.S. government's official web portal to all federal, state and local government web resources and services.